Flag for Germany Weather past 2 weeks in Höxter, North Rhine-Westphalia, Germany

Now
56 °F

Passing clouds.


Feels Like: 56 °F
Forecast: 46 / 68 °F
Wind: 3 mph from West

Location: Bad Lippspringe

Current Time: Jul 30, 2015 at 11:03:53 PM

Latest Report: Jul 30, 2015 at 10:00 PM


Visibility: 22 mi

Pressure: 30.04 "Hg

Humidity: 79%

Dew point: 49 °F

Location of HöxterLocation

Historic Weather in Höxter — Graph

°F

Höxter temperature yesterday

Maximum temperature yesterday: 62 °F (at 12:00 PM)
Minimum temperature yesterday: 52 °F (at 1:00 PM)
Average temperature yesterday: 56 °F

Past Weeks' High & Low Weather Summary

 TemperatureHumidityPressure
High88 °F (Jul 17, 4:00 PM)100% (Jul 16, 4:00 AM)30.11 "Hg (Jul 16, 4:00 AM)
Low50 °F (Jul 30, 5:00 AM)27% (Jul 17, 5:00 PM)29.50 "Hg (Jul 25, 11:00 AM)
Average64 °F75%29.87 "Hg
* Reported Jul 15 10:00 PM — Jul 30 10:00 PM, Höxter, Weather by CustomWeather, © 2015

Note: Actual official high and low records may vary slightly from our data, if they occured in-between our weather recording intervals... More about our weather records

Advertising

Höxter weather history for previous 24 hours

 ConditionsComfort  
Time TempWeatherWind HumidityBarometerVisibility
10:00 PM
Thu, Jul 30
56 °FPassing clouds.3 mph79%30.04 "Hg22 mi
9:00 PM58 °FPartly sunny.3 mph75%30.01 "Hg25 mi
8:00 PM59 °FOvercast.3 mph72%30.00 "Hg31 mi
7:00 PM59 °FOvercast.5 mph69%30.00 "Hg28 mi
6:00 PM59 °FOvercast.1 mph70%29.99 "Hg34 mi
5:00 PM60 °FOvercast.7 mph63%29.98 "Hg19 mi
4:00 PM58 °FOvercast.3 mph71%29.98 "Hg31 mi
3:00 PM55 °FLight rain. Overcast.3 mph84%29.98 "Hg22 mi
2:00 PM61 °FOvercast.6 mph60%29.95 "Hg28 mi
1:00 PM60 °FOvercast.6 mph64%29.95 "Hg25 mi
12:00 PM62 °FPartly sunny.7 mph64%29.93 "Hg11 mi
10:00 AM57 °FOvercast.7 mph75%29.93 "Hg12 mi
9:00 AM55 °FOvercast.6 mph85%29.92 "Hg12 mi
8:00 AM53 °FOvercast.6 mph88%29.91 "Hg10 mi
7:00 AM51 °FOvercast.3 mph91%29.91 "Hg9 mi
5:00 AM50 °FPassing clouds.3 mph91%29.90 "Hg7 mi
4:00 AM51 °FClear.3 mph90%29.89 "Hg8 mi
3:00 AM51 °FClear.3 mph89%29.88 "Hg9 mi
2:00 AM52 °FClear.5 mph87%29.88 "Hg14 mi
1:00 AM52 °FClear.5 mph86%29.87 "Hg14 mi
11:00 PM
Wed, Jul 29
55 °FOvercast.5 mph79%29.85 "Hg25 mi
Weather by CustomWeather, © 2015

See weather overviewHow to use our weather pages